Regional Weather Roundup
Issued by NWS

Home | Current Version | Previous Version | Graphics & Text | Print | Product List | Glossary On
Versions: 1 2 3 4 5 6 7 8 9 10 11 12 13 14 15 16 17 18 19 20 21 22 23 24 25 26 27 28 29 30 31 32 33 34 35 36 37 38 39 40 41 42 43 44 45 46 47 48 49 50
000
ASUS43 KLMK 040902
RWRKY
KENTUCKY REGIONAL WEATHER ROUNDUP
NATIONAL WEATHER SERVICE LOUISVILLE KY
500 AM EDT SAT JUL 04 2015

NOTE "FAIR" INDICATES FEW OR NO CLOUDS BELOW 12,000 FEET
WITH NO SIGNIFICANT WEATHER AND/OR OBSTRUCTIONS TO VISIBILITY.

KYZ001>023-026-027-061>063-070>075-041000-
WESTERN AND SOUTH CENTRAL KENTUCKY

CITY           SKY/WX    TMP DP  RH WIND       PRES   REMARKS
PADUCAH        CLOUDY    71  69  93 N5        29.90S FOG
HENDERSON      CLOUDY    66  64  94 N7        29.91S
OWENSBORO      NOT AVBL
HOPKINSVILLE   CLOUDY    70  69  96 SW3       29.91R
BOWLING GREEN  CLOUDY    71  68  90 CALM      29.92R
GLASGOW        NOT AVBL
$$

KYZ024-025-028>034-038-045-046-053-041000-
NORTH CENTRAL KENTUCKY

CITY           SKY/WX    TMP DP  RH WIND       PRES   REMARKS
LOUISVILLE/SDF CLOUDY    70  67  90 CALM      29.91S
LOUISVILLE/LOU CLOUDY    70  68  93 CALM      29.92R FOG
FORT KNOX      CLOUDY    68  67  96 W2        29.91S FOG
$$

KYZ035>037-039>044-047>052-055>060-089>105-041000-
NORTHEAST KENTUCKY

CITY           SKY/WX    TMP DP  RH WIND       PRES   REMARKS
LEXINGTON      CLOUDY    68  66  93 N5        29.92S FOG
COVINGTON      CLOUDY    68  64  87 N5        29.92S
FRANKFORT      CLOUDY    68  65  90 CALM      29.91F FOG
$$

KYZ054-064>069-076>088-106>120-041000-
SOUTHEAST KENTUCKY

CITY           SKY/WX    TMP DP  RH WIND       PRES   REMARKS
JACKSON        LGT RAIN  67  65  93 VRB3      29.94R FOG
LONDON         CLOUDY    69  65  86 SW6       29.95R
SOMERSET       NOT AVBL
MIDDLESBORO    CLOUDY    67  67  98 CALM      29.97R
MONTICELLO     CLOUDY    70  70 100 CALM      29.97R
$$




USA.gov is the U.S. government's official web portal to all federal, state and local government web resources and services.